Regional Weather Roundup
Issued by NWS

Home | Current Version | Previous Version | Text Only | Print | Product List | Glossary On
Versions: 1 2 3 4 5 6 7 8 9 10 11 12 13 14 15 16 17 18 19 20 21 22 23 24 25 26 27
000
ASUS45 KPSR 240210
RWRAZ

ARIZONA HOURLY REGIONAL WEATHER ROUNDUP
NATIONAL WEATHER SERVICE PHOENIX AZ
700 PM MST TUE JAN 23 2018

NOTE: FAIR INDICATES FEW OR NO CLOUDS BELOW 12,000 FEET WITH NO
SIGNIFICANT WEATHER AND/OR OBSTRUCTIONS TO VISIBILITY.

AZZ001>003-036-240300-
NORTHWEST ARIZONA

CITY           SKY/WX    TMP DP  RH WIND       PRES   REMARKS
BULLHEAD CITY  CLEAR     63  23  22 N16G22    30.20R
KINGMAN        CLEAR    N/A N/A N/A E6        30.25R
$$

AZZ004>008-015-016-018-240300-
NORTH CENTRAL ARIZONA

CITY           SKY/WX    TMP DP  RH WIND       PRES   REMARKS
GRAND CANYON   CLEAR     23  14  68 NE3       30.32R
WILLIAMS       CLEAR     32  12  43 SE7       30.27R WCI  26
PRESCOTT       CLEAR     38  14  37 SW3       30.25R
FLAGSTAFF      CLEAR     26   9  48 NE5       30.31R WCI  20
PAYSON         PTCLDY    41   9  26 NE9       30.25R
PAGE           CLEAR     38  17  42 S3        30.33S
$$

AZZ009>014-017-240300-
NORTHEAST ARIZONA

CITY           SKY/WX    TMP DP  RH WIND       PRES   REMARKS
WINSLOW        CLEAR     28   1  31 W3        30.33R
SAINT JOHNS    CLEAR     33  14  45 W5        30.30R WCI  29
WINDOW ROCK    CLEAR     31  13  47 E5        30.32R WCI  26
SHOW LOW       CLEAR     28  14  54 CALM      30.32R
$$

AZZ540-542>544-546-548-240300-
GREATER PHOENIX AREA

CITY           SKY/WX    TMP DP  RH WIND       PRES   REMARKS
PHOENIX        CLEAR     64  15  15 CALM      30.12R
BUCKEYE        CLEAR     55  21  26 N6        30.14R
GLENDALE       CLEAR     63  19  19 CALM      30.14R
LUKE AFB       CLEAR     59  22  24 CALM      30.12R
DEER VALLEY    CLEAR     62  11  13 N10       30.13R
SCOTTSDALE     CLEAR     62  19  19 N3        30.14R
MESA-FALCON    CLEAR     63  16  16 NW3       30.14R
MESA-GATEWAY   CLEAR     61  12  15 N10       30.14R
CHANDLER       CLEAR     63  12  14 NW6       30.13R
$$

AZZ539-553-240300-
SOUTHWEST MARICOPA COUNTY AND PINAL COUNTY

CITY           SKY/WX    TMP DP  RH WIND       PRES   REMARKS
CASA GRANDE    NOT AVBL
GILA BEND      FAIR      61  10  13 N6        30.12R
$$

AZZ503-504-507>509-240300-
SOUTHEAST ARIZONA

CITY           SKY/WX    TMP DP  RH WIND       PRES   REMARKS
TUCSON         CLEAR     56  14  19 CALM      30.14R
DAVIS-MONTHAN  CLEAR     52  14  22 CALM      30.12R
RYAN FIELD     CLEAR     55  12  18 NW3       30.14R
NOGALES        CLEAR     53  -2  10 NE12      30.12R
SIERRA VISTA   CLEAR     45  -2  14 SE6       30.18R
DOUGLAS        CLEAR     47  -3  12 E8        30.18R
SAFFORD        CLEAR     44   5  20 NE6       30.18R
$$

AZZ532-240300-
SOUTHWEST ARIZONA

CITY           SKY/WX    TMP DP  RH WIND       PRES   REMARKS
YUMA           CLEAR     64  14  14 N9        30.14R
$$

CAZ041-043-047-048-061-525>527-560>570-240300-
SOUTHERN CALIFORNIA

CITY           SKY/WX    TMP DP  RH WIND       PRES   REMARKS
DOWNTOWN L.A.  CLEAR     64  36  35 CALM      30.11R
L.A. AIRPORT   PTCLDY    61  50  67 W8        30.12R
SAN DIEGO      CLEAR     65  32  29 N6        30.12R
BURBANK        CLEAR     67  28  23 SE6       30.11R
ONTARIO        PTCLDY    67  25  20 VRB6      30.12R
RIVERSIDE      CLEAR     66  22  18 NE6       30.13R
PALM SPRINGS   PTCLDY    67  23  19 W6        30.17R
EL CENTRO NAS  CLEAR     61  18  18 SW5       30.16R
IMPERIAL       CLEAR     61  26  26 CALM      30.14R
BLYTHE         CLEAR     60  26  27 CALM      30.16R
NEEDLES        CLEAR     60  22  23 N7        30.20R
$$

NVZ020-UTZ003-240300-
SOUTHERN NEVADA-UTAH

CITY           SKY/WX    TMP DP  RH WIND       PRES   REMARKS
LAS VEGAS      PTCLDY    55  24  30 NE5       30.25R
SALT LAKE CITY PTCLDY    35  26  69 CALM      30.31S
$$

NMZ009-TXZ055-240300-
NEW MEXICO-WEST TEXAS

CITY           SKY/WX    TMP DP  RH WIND       PRES   REMARKS
ALBUQUERQUE    CLEAR     40  10  29 N5        30.30R
EL PASO        CLEAR     47   4  17 N8        30.22R
$$


........................KEY........................
SKY/WX - SKY CONDITION/WEATHER
TMP    - TEMPERATURE IN FAHRENHEIT
DP     - DEW POINT IN FAHRENHEIT
RH     - RELATIVE HUMIDITY IN PERCENT
WIND   - DIRECTION AND SPEED IN MILES PER HOUR (MPH)
VRB    - VARIABLE WIND DIRECTION
PRES   - MEAN SEA LEVEL PRESSURE IN INCHES OF MERCURY
         F - FALLING PRESSURE   R - RISING PRESSURE
         S - STEADY PRESSURE
VSB    - VISIBILITY IN MILES
HX     - HEAT INDEX IN FAHRENHEIT
WCI    - WIND CHILL INDEX IN FAHRENHEIT
TC     - TEMPERATURE IN CELSIUS WHICH IS ALSO KNOWN AS
         TEMPERATURE IN CENTIGRADE
AFB    - AIR FORCE BASE
         LUKE AFB IS LUKE AIR FORCE BASE
         DAVIS-MONTHAN IS DAVIS-MONTHAN AIR FORCE BASE
NAS    - NAVAL AIR STATION
         EL CENTRO NAS IS EL CENTRO NAVAL AIR STATION
N/A    - NOT AVAILABLE





USA.gov is the U.S. government's official web portal to all federal, state and local government web resources and services.